KG5VSR Weather Reports


Display with metric or nautical units.
time (UTC)temp
F
wind
direction
speed
MPH
gust
MPH
rain 1hr
in
rain 24hr
in
rain mn
in
humidity
%
barometer
mb
20260510035957 77 52 0.0 0.0 0.00 0.00 0.00 74 1010.0
20260510032953 78 56 0.0 0.0 0.00 0.00 0.00 73 1009.8
20260510025953 79 39 1.0 1.0 0.00 0.00 0.00 71 1009.8
20260510022951 80 63 1.0 1.0 0.00 0.00 0.00 69 1009.6
20260510015946 81 54 5.0 6.0 0.00 0.00 0.00 66 1009.2
20260510012946 82 67 1.0 2.0 0.00 0.00 0.00 61 1009.1
20260510005945 84 49 1.0 2.0 0.00 0.00 0.00 57 1008.6
20260510002942 85 52 1.0 1.0 0.00 0.00 0.00 55 1008.6
20260509235940 86 55 2.0 3.0 0.00 0.00 0.00 53 1008.6
20260509232939 87 24 1.0 1.0 0.00 0.00 0.00 53 1008.7
20260509225937 88 54 1.0 2.0 0.00 0.00 0.00 54 1008.4
20260509222934 88 77 2.0 2.0 0.00 0.00 0.00 55 1008.4
20260509215933 88 353 0.0 0.0 0.00 0.00 0.00 57 1008.4
20260509212931 87 88 1.0 1.0 0.00 0.00 0.00 58 1008.8
20260509205926 87 13 0.0 1.0 0.00 0.00 0.00 62 1008.9
20260509202921 88 16 1.0 1.0 0.00 0.00 0.00 63 1009.5
20260509195919 88 234 1.0 1.0 0.00 0.00 0.00 58 1009.6
20260509192915 87 337 1.0 2.0 0.00 0.00 0.00 61 1009.7
20260509185911 89 12 4.0 5.0 0.00 0.00 0.00 61 1010.1
20260509182908 86 324 2.0 3.0 0.00 0.00 0.00 65 1010.3
20260509175907 85 272 1.0 2.0 0.00 0.00 0.00 66 1010.6
20260509172906 85 33 2.0 2.0 0.00 0.00 0.00 68 1010.7
20260509165900 83 91 2.0 2.0 0.00 0.00 0.00 70 1011.0
20260509162857 81 10 2.0 3.0 0.00 0.00 0.00 75 1011.1
20260509155852 80 21 0.0 0.0 0.00 0.00 0.00 75 1010.8
20260509152849 79 51 1.0 1.0 0.00 0.00 0.00 76 1010.8
20260509145850 78 328 3.0 5.0 0.00 0.00 0.00 78 1010.9
20260509142845 77 279 3.0 3.0 0.00 0.00 0.00 82 1010.7
20260509135843 74 335 3.0 3.0 0.00 0.00 0.00 87 1010.9
20260509132839 73 322 1.0 1.0 0.00 0.00 0.00 90 1010.7
20260509125837 71 275 1.0 1.0 0.00 0.00 0.00 92 1010.6
20260509122834 69 291 0.0 0.0 0.00 0.00 0.00 99 1010.7
20260509115831 69 181 0.0 0.0 0.00 0.00 0.00 99 1010.3
20260509112828 69 180 0.0 0.0 0.00 0.00 0.00 98 1009.6
20260509105829 0 0.0 0.0 0.00 0.00 0.00 1009.4
20260509102825 70 312 0.0 0.0 0.00 0.00 0.00 97 1009.4
20260509095823 70 323 0.0 0.0 0.00 0.00 0.00 97 1009.0
20260509092819 70 32 0.0 0.0 0.00 0.00 0.00 96 1008.3
20260509085814 70 183 3.0 3.0 0.00 0.00 0.00 97 1006.9
20260509082814 70 158 1.0 2.0 0.00 0.00 0.00 96 1008.7
20260509075810 70 126 2.0 2.0 0.00 0.00 0.00 95 1010.1
20260509072808 71 166 1.0 1.0 0.00 0.00 0.00 94 1010.8
20260509065805 70 283 0.0 0.0 0.00 0.00 0.00 94 1010.6
20260509062804 70 216 0.0 0.0 0.00 0.00 0.00 94 1010.8
20260509055802 71 286 0.0 0.0 0.00 0.00 0.00 92 1011.4
20260509052803 71 354 1.0 1.0 0.00 0.00 0.00 90 1011.7
20260509045757 73 173 1.0 2.0 0.00 0.00 0.00 88 1010.3
20260509042754 72 185 2.0 2.0 0.00 0.00 0.00 87 1010.5